Location: Marcé
(47.5801°N, 0.3280°W)
Time: 03:06:56
(UTC+01:00)

Courier 1B - Pass Details

Date: 06 December 2021
Orbit: 962 x 1209 km, 28.3° (Epoch: 26 January)

Event Time Altitude Azimuth Distance (km) Brightness Sun altitude
Rises 16:32:59 0° 216° (SW) 4,077 12.8 4.2°
Reaches altitude 10° 16:37:48 10° 191° (S) 3,079 11.0 3.6°
Maximum altitude 16:40:56 13° 166° (SSE) 2,831 10.3 3.2°
Drops below altitude 10° 16:44:00 10° 142° (SE) 3,017 10.1 2.7°
Sets 16:48:36 0° 116° (ESE) 3,920 10.4 2.1°
